Location: Azul
(36.7830°S, 59.8500°W)
Time: 00:35:49
(UTC-03:00)

TIGRISAT - Pass Details

Date: 27 October 2021
Orbit: 603 x 689 km, 97.7° (Epoch: 27 November)

Event Time Altitude Azimuth Distance (km) Brightness Sun altitude
Rises 19:49:26 0° 353° (N) 2,847 ? -5.0°
Reaches altitude 10° 19:51:44 10° 343° (NNW) 1,955 ? -5.4°
Maximum altitude 19:55:37 35° 277° (W) 1,008 ? -6.1°
Drops below altitude 10° 19:59:36 10° 211° (SSW) 2,004 ? -6.9°
Sets 20:01:59 0° 202° (SSW) 2,930 ? -7.3°
